Wind_Speed
64 63 74 78 80 81 82 80 77 78 80 80 70 67 68 71 73 90 95 92 91 85 85 80 73 70 64 62 62 58 53 52 47 46 48 43 43 40 41 46 43 37 33 33
65 67 73 76 80 81 82 84 82 85 88 86 79 75 76 78 74 79 99 95 93 92 87 84 77 69 65 68 63 55 52 52 57 53 52 48 47 43 44 48 43 42 35 34
65 72 77 79 80 81 84 85 89 86 91 87 85 78 82 83 78 77 97 98 94 94 89 84 80 77 68 67 61 59 51 51 57 56 53 50 47 47 50 51 46 42 40 40
70 73 76 78 79 83 85 89 87 88 90 87 94 81 86 91 86 82 85 101 93 92 90 85 80 74 74 69 64 64 47 50 57 58 55 52 52 51 51 50 47 42 43 44
67 66 71 69 72 75 77 84 89 91 84 86 89 102 82 95 95 78 80 101 100 96 97 90 85 77 80 72 68 67 51 47 54 58 59 59 59 57 52 49 50 45 46 48
56 58 60 63 65 70 74 77 81 77 75 76 89 98 93 97 95 83 83 92 106 100 98 97 89 81 79 76 69 66 62 53 53 62 60 61 62 60 51 49 47 49 49 48
44 49 54 57 60 63 65 69 69 64 62 64 91 94 91 101 101 92 85 87 102 105 101 101 94 84 79 77 75 69 66 57 54 60 61 64 65 61 52 50 49 53 53 51
38 41 46 51 53 51 48 51 52 54 56 61 67 65 79 100 110 104 89 87 95 104 100 102 98 89 84 81 75 71 66 62 56 61 65 65 62 60 54 57 56 56 53 52
33 34 40 44 42 40 34 32 31 34 38 39 51 62 80 102 106 98 95 92 91 100 102 102 103 95 88 84 79 72 68 67 62 61 55 55 57 62 60 59 59 56 58 53
28 27 34 33 32 27 23 18 14 19 27 35 45 53 70 98 98 98 98 93 88 96 104 102 104 101 95 89 86 80 74 68 66 63 60 60 61 62 62 62 56 55 57 57
25 23 18 15 9 6 8 8 11 17 27 40 47 53 64 88 94 93 97 92 90 94 102 101 98 99 101 93 89 83 73 69 64 64 65 63 64 65 63 61 59 57 56 56
26 17 8 5 7 7 9 12 20 27 30 35 45 53 60 83 89 91 94 92 89 91 102 102 100 96 97 94 88 83 77 73 64 65 64 62 60 65 63 62 60 57 58 60
19 15 5 4 12 14 20 26 42 40 34 36 41 58 64 75 84 90 93 91 87 87 96 102 97 96 92 92 89 87 80 79 70 66 67 61 62 59 61 63 61 60 59 59
7 7 3 7 12 25 29 24 47 49 43 43 48 60 65 75 84 90 92 88 81 84 88 100 94 91 88 86 88 85 82 74 72 70 66 64 62 62 66 67 64 65 66 65
13 6 7 5 6 25 33 28 32 36 37 40 48 55 64 73 83 86 86 80 80 80 82 95 95 90 84 82 78 81 79 78 73 71 68 69 66 60 60 63 63 68 71 67
18 12 8 13 15 26 29 30 25 33 33 40 33 37 56 63 72 76 78 80 79 77 79 91 92 88 82 80 76 75 75 77 73 73 70 68 70 69 69 67 67 64 66 68
20 19 17 16 19 22 24 25 30 29 31 31 33 37 41 55 64 72 76 78 75 74 78 89 90 86 81 78 77 76 74 78 73 73 77 77 71 69 71 70 65 69 73 70
19 21 19 20 24 19 24 30 31 28 30 28 31 38 47 56 63 69 74 75 71 72 78 85 88 86 82 77 77 74 75 74 74 73 73 72 78 75 70 73 74 74 72 72
15 22 24 25 25 32 33 35 36 32 32 35 32 40 47 55 62 66 69 69 68 72 83 83 85 85 82 78 79 79 79 77 75 78 77 77 78 79 79 77 77 77 78 78
15 18 27 30 30 30 35 34 38 36 37 39 38 41 49 53 61 64 64 66 70 78 83 84 83 83 84 82 81 82 83 81 81 78 78 78 81 83 84 84 85 83 84 87
15 16 24 31 32 34 35 36 38 39 39 40 41 44 48 53 60 64 59 63 70 79 79 83 84 85 86 86 84 82 80 79 80 82 86 87 86 85 86 87 89 89 89 93
16 13 14 25 32 33 38 39 40 42 43 45 46 49 52 54 58 63 61 64 74 83 81 83 85 88 90 90 90 90 89 88 86 86 86 87 88 89 90 92 93 94 96 94
18 17 16 18 22 32 34 39 42 43 45 47 49 51 54 57 60 60 65 63 76 86 86 85 86 87 88 92 93 94 94 94 94 95 95 95 94 95 96 97 98 97 93 92
20 18 18 18 18 25 35 38 40 42 45 45 48 51 57 58 60 64 67 66 70 88 92 91 90 92 93 93 93 95 98 99 99 100 100 99 99 100 101 103 103 104 106 107
19 19 19 20 20 18 23 31 38 41 43 46 48 51 56 60 63 65 68 69 69 83 94 95 97 98 97 96 95 97 99 101 103 104 105 106 106 107 108 109 110 111 113 115
23 18 17 18 19 23 23 23 34 42 48 50 51 54 56 60 66 68 70 71 72 73 79 106 100 103 103 104 104 101 102 103 103 102 103 104 106 108 110 111 113 114 114 115
Wind_Direction
247 247 246 247 248 248 249 249 247 247 244 242 235 224 225 228 221 215 213 217 219 219 221 221 221 224 226 230 231 233 231 237 235 245 241 244 249 259 265 268 258 269 270 271
247 246 248 248 247 248 248 247 247 244 242 238 235 226 221 223 224 217 212 213 216 218 220 221 219 222 227 228 229 230 231 232 233 232 241 247 250 255 265 263 256 269 268 270
252 250 248 249 252 251 251 249 248 244 244 235 234 224 220 219 220 216 212 210 213 215 218 222 220 222 223 227 227 228 230 232 233 235 240 247 248 255 263 258 262 268 264 270
254 254 253 251 251 250 248 250 250 248 243 238 232 227 223 217 216 217 213 210 211 215 214 220 221 221 223 225 225 224 226 230 233 238 240 246 249 255 260 266 259 260 264 270
261 266 265 261 257 255 253 250 249 248 245 239 235 227 227 220 215 215 212 211 210 214 215 217 221 215 221 221 223 228 223 229 233 237 242 245 250 253 255 261 259 259 262 269
267 264 265 264 262 259 257 256 256 253 247 238 233 233 219 222 213 212 213 212 210 213 215 216 218 215 219 221 222 228 228 227 232 236 240 245 247 250 253 256 260 258 263 269
269 269 267 268 265 264 262 263 263 260 250 235 230 228 212 214 211 210 212 211 210 213 214 216 218 215 215 218 220 222 227 229 233 238 238 242 245 247 250 257 256 257 264 272
276 277 277 275 275 270 268 264 260 254 248 239 233 228 210 206 209 211 209 210 208 212 215 216 218 215 215 215 219 223 226 229 237 240 243 240 245 249 252 255 255 259 266 270
282 281 283 286 293 287 280 272 264 250 244 232 220 215 207 205 214 209 209 209 207 209 212 216 217 217 216 221 219 222 227 232 238 238 237 242 246 250 253 254 257 260 265 268
291 289 298 299 291 292 283 268 251 235 220 212 206 204 202 204 211 210 211 210 208 208 211 214 217 218 219 222 223 224 229 236 239 238 243 241 241 246 250 254 257 264 266 267
302 315 314 307 298 303 293 251 188 198 201 197 191 187 194 202 207 207 211 211 209 210 211 213 216 219 221 222 226 228 228 234 238 239 240 243 247 246 249 258 261 263 263 266
315 334 345 331 154 170 167 176 156 161 174 182 184 181 191 198 203 205 209 212 210 212 211 212 216 218 220 221 224 228 227 231 237 242 243 244 244 254 256 257 256 254 257 263
318 351 59 137 154 162 162 167 138 137 163 169 176 178 192 193 201 205 209 212 213 213 213 211 215 219 221 221 223 228 229 231 237 241 248 249 250 248 251 254 252 255 258 265
303 84 331 76 169 160 151 169 156 149 162 180 188 183 192 195 199 206 211 212 214 216 216 212 215 220 221 223 225 229 232 234 237 237 242 251 253 246 249 253 250 253 256 263
290 260 146 195 196 189 167 180 179 178 185 192 200 199 195 200 202 208 213 213 217 219 217 213 215 220 222 225 225 229 230 233 234 238 242 245 248 249 253 253 252 258 259 263
273 270 190 163 182 195 189 181 185 186 200 205 204 215 207 207 208 209 213 216 218 219 219 212 216 219 222 223 226 230 233 234 236 237 240 245 246 254 259 256 260 259 257 261
269 256 261 205 173 196 209 216 208 203 204 209 212 210 210 206 208 208 211 216 219 221 218 214 217 220 223 227 229 230 233 234 238 241 240 243 248 251 254 250 253 258 259 267
266 265 253 231 197 176 214 220 224 224 216 215 213 210 210 209 210 211 212 219 221 221 216 217 217 220 223 229 230 233 238 238 241 240 241 244 245 247 249 253 260 261 262 268
289 260 250 242 227 212 213 227 220 220 218 217 211 212 213 215 216 217 219 222 223 220 216 218 217 220 224 227 230 234 236 241 241 242 241 245 246 248 254 256 256 258 262 266
313 265 244 244 242 237 232 234 224 223 221 217 216 217 217 218 221 222 225 226 223 221 219 221 219 220 225 227 231 233 237 241 243 244 247 248 250 253 256 258 258 262 265 268
302 302 247 243 238 241 239 239 237 229 225 226 222 222 225 224 224 225 233 234 226 218 222 224 223 222 224 225 229 233 237 239 243 248 251 252 252 254 257 260 261 265 268 267
315 298 284 246 244 242 239 238 238 240 234 231 227 229 228 230 229 229 234 237 231 220 223 223 224 224 227 229 232 236 239 240 241 243 246 249 252 254 256 258 262 265 268 267
325 304 291 283 259 248 241 238 240 242 241 240 239 235 236 236 235 235 235 240 235 226 225 226 227 229 232 234 236 237 239 241 243 246 248 250 252 254 256 258 259 261 259 259
341 324 298 286 281 259 244 243 244 244 247 250 245 241 240 242 241 238 239 239 239 233 230 230 230 231 232 235 238 240 241 241 242 244 246 248 250 252 253 254 255 256 259 262
345 333 319 299 287 275 253 246 250 251 253 253 252 248 246 244 243 243 244 243 244 239 235 236 236 235 236 239 241 242 244 245 246 248 249 250 252 253 254 256 258 260 262 263
351 344 332 316 300 284 275 264 255 254 257 258 257 254 252 249 246 246 248 250 251 250 247 239 240 238 241 243 244 245 247 248 249 250 251 252 254 256 257 259 261 263 265 267
Height
10510 10514 10509 10513 10517 10522 10528 10535 10544 10546 10547 10548 10569 10579 10585 10587 10600 10615 10629 10644 10658 10671 10674 10683 10697 10710 10720 10728 10734 10740 10746 10751 10757 10761 10764 10767 10770 10774 10775 10775 10776 10777 10779 10779
10492 10494 10489 10492 10494 10500 10505 10506 10516 10511 10510 10520 10541 10556 10564 10567 10584 10598 10611 10627 10640 10652 10661 10673 10686 10698 10706 10714 10723 10730 10735 10742 10747 10750 10755 10760 10763 10766 10767 10767 10768 10771 10772 10771
10470 10467 10469 10472 10475 10478 10478 10480 10480 10487 10489 10507 10517 10535 10543 10555 10563 10577 10595 10611 10624 10638 10649 10659 10672 10683 10693 10704 10710 10717 10725 10732 10738 10742 10748 10751 10756 10757 10757 10757 10762 10765 10763 10765
10447 10443 10446 10448 10451 10445 10454 10450 10454 10459 10469 10492 10497 10524 10531 10540 10550 10562 10583 10601 10617 10629 10641 10649 10662 10675 10683 10687 10698 10707 10714 10720 10727 10733 10737 10741 10744 10748 10747 10752 10755 10754 10755 10757
10425 10426 10421 10425 10423 10423 10424 10423 10423 10431 10451 10463 10486 10494 10518 10521 10536 10554 10567 10579 10596 10608 10622 10634 10649 10659 10666 10675 10686 10695 10704 10710 10717 10721 10725 10730 10734 10735 10739 10744 10746 10746 10747 10748
10410 10408 10403 10401 10398 10395 10396 10398 10400 10409 10422 10442 10450 10455 10490 10497 10528 10531 10543 10559 10576 10589 10607 10618 10630 10642 10654 10666 10676 10686 10693 10698 10705 10709 10713 10718 10721 10725 10730 10734 10736 10737 10738 10739
10397 10389 10385 10381 10380 10377 10378 10378 10379 10385 10392 10411 10395 10410 10467 10469 10500 10509 10525 10539 10558 10574 10588 10602 10616 10630 10640 10654 10661 10671 10679 10685 10690 10695 10701 10704 10708 10716 10721 10725 10725 10726 10729 10729
10382 10375 10369 10364 10360 10361 10364 10361 10361 10365 10372 10378 10395 10428 10467 10455 10457 10483 10507 10526 10545 10562 10579 10591 10604 10616 10627 10638 10648 10658 10667 10673 10679 10683 10688 10693 10700 10706 10711 10713 10713 10715 10718 10719
10370 10365 10359 10353 10351 10346 10348 10348 10348 10351 10360 10371 10383 10402 10428 10437 10452 10482 10492 10509 10527 10546 10562 10576 10589 10603 10614 10625 10635 10646 10653 10660 10668 10672 10678 10684 10690 10695 10698 10698 10704 10706 10706 10706
10361 10360 10354 10350 10345 10342 10339 10339 10343 10344 10349 10359 10374 10396 10422 10432 10448 10468 10481 10497 10513 10527 10543 10559 10573 10588 10600 10611 10618 10630 10643 10651 10655 10662 10669 10673 10678 10684 10685 10689 10694 10695 10695 10695
10352 10353 10349 10342 10342 10339 10336 10338 10340 10343 10347 10354 10367 10387 10408 10426 10439 10457 10472 10484 10500 10516 10532 10548 10563 10575 10585 10595 10605 10619 10632 10640 10645 10650 10655 10663 10667 10672 10676 10680 10683 10686 10686 10686
10346 10350 10344 10344 10338 10339 10338 10339 10341 10345 10349 10356 10373 10389 10403 10416 10433 10446 10459 10473 10489 10502 10518 10534 10546 10559 10572 10585 10595 10605 10618 10629 10633 10637 10644 10653 10659 10661 10667 10667 10670 10674 10675 10675
10349 10345 10345 10344 10341 10341 10343 10342 10344 10350 10357 10364 10376 10389 10393 10412 10427 10439 10448 10465 10483 10495 10508 10525 10539 10553 10564 10576 10585 10595 10605 10614 10624 10630 10632 10642 10648 10649 10652 10654 10657 10660 10662 10662
10351 10352 10347 10347 10347 10348 10350 10347 10349 10351 10359 10366 10369 10383 10392 10405 10418 10432 10445 10461 10474 10486 10501 10517 10530 10542 10554 10565 10576 10586 10594 10602 10611 10620 10623 10628 10632 10635 10636 10640 10644 10646 10647 10649
10350 10349 10349 10350 10351 10350 10351 10354 10358 10361 10365 10369 10374 10383 10393 10403 10418 10429 10442 10459 10466 10479 10492 10508 10520 10534 10546 10556 10566 10575 10582 10590 10598 10606 10612 10616 10618 10620 10622 10626 10631 10633 10634 10635
10348 10348 10348 10348 10352 10353 10353 10354 10359 10365 10369 10376 10383 10392 10398 10408 10419 10431 10442 10451 10461 10474 10484 10501 10513 10526 10537 10547 10555 10564 10572 10579 10586 10593 10599 10603 10606 10607 10609 10613 10616 10618 10618 10619
10345 10347 10349 10349 10350 10355 10358 10359 10362 10366 10372 10378 10385 10392 10400 10407 10416 10428 10438 10446 10457 10467 10477 10490 10503 10516 10527 10535 10542 10550 10556 10562 10568 10575 10583 10587 10591 10592 10595 10597 10599 10602 10602 10600
10344 10344 10347 10349 10350 10353 10357 10358 10362 10369 10374 10379 10386 10392 10399 10405 10412 10423 10432 10439 10451 10459 10468 10481 10494 10505 10516 10523 10530 10537 10541 10547 10552 10557 10564 10569 10573 10575 10577 10580 10582 10583 10583 10583
10341 10342 10344 10346 10349 10349 10351 10352 10358 10364 10372 10377 10383 10389 10396 10402 10409 10416 10426 10435 10443 10450 10460 10471 10483 10493 10502 10510 10516 10521 10527 10532 10536 10541 10546 10550 10553 10556 10559 10561 10563 10564 10565 10564
10341 10340 10342 10345 10346 10349 10350 10352 10356 10362 10367 10372 10380 10386 10390 10396 10402 10409 10417 10425 10433 10440 10449 10459 10469 10479 10488 10496 10502 10507 10512 10516 10520 10524 10528 10533 10536 10539 10541 10543 10543 10543 10544 10544
10339 10338 10338 10340 10344 10346 10350 10353 10355 10360 10365 10369 10376 10381 10386 10392 10397 10404 10409 10415 10423 10431 10439 10448 10456 10465 10473 10479 10485 10491 10496 10500 10504 10507 10510 10514 10517 10520 10521 10522 10522 10524 10525 10526
10336 10336 10336 10337 10338 10341 10346 10350 10353 10356 10361 10365 10370 10374 10378 10384 10391 10397 10401 10406 10413 10421 10427 10433 10441 10449 10456 10462 10469 10474 10478 10482 10486 10489 10491 10494 10496 10499 10501 10502 10503 10504 10505 10503
10335 10333 10333 10334 10333 10335 10338 10343 10347 10351 10354 10358 10362 10367 10371 10376 10381 10387 10392 10395 10400 10408 10416 10423 10430 10436 10442 10446 10451 10456 10459 10463 10467 10469 10471 10473 10475 10477 10480 10482 10483 10484 10484 10483
10334 10332 10330 10330 10329 10329 10333 10336 10340 10344 10347 10350 10353 10358 10362 10366 10371 10376 10380 10384 10388 10394 10400 10407 10414 10419 10422 10427 10432 10435 10439 10442 10444 10446 10449 10451 10453 10456 10458 10459 10460 10460 10459 10459
10332 10329 10328 10327 10326 10327 10327 10329 10333 10337 10340 10343 10346 10349 10353 10357 10361 10365 10368 10371 10376 10379 10385 10391 10396 10401 10406 10410 10413 10416 10418 10419 10421 10423 10426 10429 10431 10432 10433 10435 10435 10435 10433 10434
10331 10328 10326 10325 10324 10323 10322 10323 10325 10327 10330 10333 10336 10339 10342 10347 10351 10353 10355 10359 10364 10368 10371 10376 10379 10382 10385 10390 10390 10392 10396 10399 10401 10403 10405 10406 10407 10408 10409 10409 10408 10408 10406 10406